Location: Unspecified
(0.0000°N, 0.0000°E)
Time: 23:33:07
(UTC+00:00)

Vanguard 2 - Pass Details

Date: 02 October 2020
Orbit: 554 x 2937 km, 32.9° (Epoch: 28 October)

Event Time Altitude Azimuth Distance (km) Brightness Sun altitude
Rises 16:28:22 0° 232° (SW) 4,571 12.4 20.1°
Reaches altitude 10° 16:34:46 10° 200° (SSW) 4,226 11.7 18.5°
Maximum altitude 16:38:08 11° 183° (S) 4,405 11.6 17.7°
Drops below altitude 10° 16:41:54 10° 166° (SSE) 4,832 11.6 16.8°
Sets 16:51:23 0° 138° (SE) 6,438 11.9 14.4°
